千帆星座-87 (QIANFAN-87)

导读

QIANFAN-87 是中国北斗卫星导航系统的一部分,属于北斗三号系统的地球静止轨道卫星。该卫星由中国自主研发,主要用于提供高精度定位、导航和授时服务,增强区域及全球服务能力。QIANFAN-87 于2023年成功发射,进一步完善了北斗系统的星座布局,提升系统在复杂环境下的稳定性和可靠性,广泛服务于交通、农业、通信、应急救援等多个领域,推动中国在全球卫星导航领域的竞争力。

Basic Information
目录编号:
63173
目录名称:
QIANFAN-87
国际标识:
2025-046Q
轨道中心:
EARTH
卫星名称:
千帆星座-87
卫星全名:
千帆星座-87 (QIANFAN-87)
卫星状态:
在轨 (已飞行459 天)
发射日期:
2025-03-11 UTC
国别 :
中国 (CN)
星等 :
--
Orbit Information
数据来源 国际轨道数据 AOE轨道数据
星历时间 2026-06-13T03:07:41+0800
6小时前
查看轨道信息
2026-06-11T11:00:00+0800
1天前
查看轨道信息
半长轴 7446.654km 7446.659km
偏心率 0.0010026 0.0010204
轨道倾角 88.971° 88.969°
近地点辐角 328.446° 334.230°
升交点赤经 301.010° 301.184°
平近点角 31.609° 178.605°
近地点 1061.05km 1060.923km
远地点 1075.984km 1076.121km
周期 106.586分钟 106.586分钟
每日圈数 13.510176 13.510164
Detailed Information
卫星平台:
87
覆盖范围:
全球
运营商:
上海垣信卫星科技有限公司
运营商所在国:
中国
使用方式:
暂无
Satellite Introduction
千帆星座,也被称为“G60星链”计划,是中国版“星链”的重要组成部分,旨在打造一个由1.4万多颗低轨宽频多媒体卫星构成的庞大星座。千帆星座计划由上海垣信卫星科技有限公司负责实施,于2023年启动建设。该项目是我国第二个低轨卫星大星座,旨在通过构建庞大的卫星网络,为全球用户提供高质量的通信和宽带互联网服务。
2D Orbit Map
3D Orbit Map
Orbit Altitude Analysis Chart
Orbit Inclination Analysis Chart
Orbit Comprehensive Analysis Chart
View Comprehensive Chart